Spokane, WA

8:52 PM PST on February 21, 2017 (GMT -0800)
Felts

Weather History for KSFF - January, 2012

Change the Weather History Date:

Tuesday, January 10, 2012

  Actual Average Record
Temperature  
Mean Temperature 32 °F 31 °F  
Max Temperature 40 °F 36 °F 53 °F (2006)
Min Temperature 23 °F 25 °F 6 °F (1998)
Degree Days  
Heating Degree Days 33 34  
Month to date heating degree days 296 349  
Since 1 July heating degree days 2819 3018  
Cooling Degree Days 0 0  
Month to date cooling degree days 0 0  
Year to date cooling degree days 0 0  
Moisture  
Dew Point 23 °F    
Average Humidity 64    
Maximum Humidity 96    
Minimum Humidity 32    
Precipitation  
Precipitation 0.17 in 0.08 in 0.88 in (2006)
Month to date precipitation 0.21 0.69  
Year to date precipitation 0.21 0.69  
Sea Level Pressure  
Sea Level Pressure 30.28 in    
Wind  
Wind Speed 6 mph (West)    
Max Wind Speed 15 mph    
Max Gust Speed 23 mph    
Visibility 9 miles    
Events Rain    
T = Trace of Precipitation, MM = Missing Value Source: NWS Daily Summary

Daily Weather History Graph

Daily Weather History Graph

Search for Another Location

Airport or City:

Trip Planner

Search our weather history database for the weather conditions in past years. The results will help you decide how hot, cold, wet, or windy it might be!

Date:

Astronomy

Jan. 10, 2012 Rise Set
Actual Time 7:35 AM PST 4:17 PM PST
Civil Twilight 7:00 AM PST 4:53 PM PST
Nautical Twilight 6:21 AM PST 5:31 PM PST
Astronomical Twilight 5:44 AM PST 6:08 PM PST
Moon 6:25 PM PST (1/10) 8:07 AM PST (1/10)
Length of Visible Light 9h 52m
Length of Day
8h 41m
Full, 97% of the Moon is Illuminated
Jan 10
Full
Jan 16
Last Quarter
Jan 22
New
Jan 30
First Quarter
Feb 7
Full

Hourly Weather History & Observations

Time (PST) Temp. Windchill Dew Point Humidity Pressure Visibility Wind Dir Wind Speed Gust Speed Precip Events Conditions
12:53 AM 37.9 °F - 36.0 °F 93% 30.07 in 4.0 mi Calm Calm - 0.02 in Rain Light Rain
1:12 AM 37.4 °F - 35.6 °F 93% 30.05 in 2.5 mi Calm Calm - 0.01 in Rain Light Rain
1:53 AM 37.9 °F - 36.0 °F 93% 30.08 in 2.5 mi Calm Calm - 0.06 in Rain Light Rain
2:04 AM 37.4 °F 34.9 °F 35.6 °F 93% 30.06 in 3.0 mi WSW 3.5 mph - 0.02 in Rain Rain
2:53 AM 37.0 °F - 34.0 °F 89% 30.08 in 10.0 mi Calm Calm - 0.07 in   Overcast
3:07 AM 37.4 °F 34.9 °F 33.8 °F 87% 30.05 in 10.0 mi West 3.5 mph - N/A   Overcast
3:49 AM 35.6 °F 31.7 °F 33.8 °F 93% 30.06 in 9.0 mi Variable 4.6 mph - 0.00 in   Overcast
3:53 AM 36.0 °F 31.1 °F 34.0 °F 93% 30.10 in 9.0 mi West 5.8 mph - 0.00 in   Overcast
4:53 AM 35.1 °F 27.4 °F 33.1 °F 92% 30.12 in 6.0 mi WSW 10.4 mph 17.3 mph 0.02 in   Overcast
5:53 AM 34.0 °F 25.5 °F 32.0 °F 92% 30.14 in 10.0 mi WSW 11.5 mph - 0.00 in   Overcast
6:53 AM 34.0 °F 26.6 °F 30.9 °F 89% 30.18 in 10.0 mi West 9.2 mph - N/A   Overcast
7:53 AM 33.1 °F 25.5 °F 30.9 °F 92% 30.22 in 9.0 mi WSW 9.2 mph - N/A   Overcast
8:53 AM 34.0 °F 28.8 °F 30.9 °F 89% 30.25 in 10.0 mi WSW 5.8 mph - N/A   Overcast
9:44 AM 33.8 °F 26.4 °F 30.2 °F 87% 30.23 in 8.0 mi WSW 9.2 mph - N/A   Scattered Clouds
9:53 AM 34.0 °F 28.0 °F 30.9 °F 89% 30.28 in 9.0 mi West 6.9 mph - N/A   Partly Cloudy
10:53 AM 35.6 °F 29.9 °F 30.2 °F 81% 30.26 in 10.0 mi WSW 6.9 mph - N/A   Scattered Clouds
11:53 AM 39.9 °F 36.7 °F 23.0 °F 51% 30.30 in 10.0 mi NNE 4.6 mph - N/A   Scattered Clouds
12:53 PM 37.9 °F 33.5 °F 23.0 °F 55% 30.31 in 10.0 mi North 5.8 mph - N/A   Overcast
1:53 PM 36.0 °F 31.1 °F 16.0 °F 44% 30.34 in 10.0 mi Variable 5.8 mph - N/A   Partly Cloudy
2:53 PM 36.0 °F 28.5 °F 8.1 °F 31% 30.38 in 10.0 mi North 10.4 mph 18.4 mph N/A   Clear
3:53 PM 33.1 °F 25.5 °F 8.1 °F 35% 30.41 in 10.0 mi NNW 9.2 mph 21.9 mph N/A   Clear
4:53 PM 30.9 °F 25.2 °F 8.1 °F 38% 30.46 in 10.0 mi Variable 5.8 mph - N/A   Clear
5:53 PM 30.0 °F 24.1 °F 8.1 °F 40% 30.48 in 10.0 mi Variable 5.8 mph - N/A   Clear
6:53 PM 30.0 °F 23.2 °F 8.1 °F 40% 30.49 in 10.0 mi NNW 6.9 mph - N/A   Clear
7:53 PM 28.9 °F 21.1 °F 8.1 °F 41% 30.51 in 10.0 mi North 8.1 mph - N/A   Clear
8:53 PM 27.0 °F - 12.0 °F 53% 30.53 in 10.0 mi Calm Calm - N/A   Clear
9:53 PM 25.0 °F - 10.9 °F 55% 30.56 in 10.0 mi Calm Calm - N/A   Clear
10:53 PM 24.1 °F 19.7 °F 10.9 °F 57% 30.59 in 10.0 mi WSW 3.5 mph - N/A   Clear
11:53 PM 24.1 °F - 9.0 °F 53% 30.59 in 10.0 mi Calm Calm - N/A   Clear